Location: Kra?nica
(53.4833°N, 14.6167°E)
Time: 16:56:12
(UTC+00:00)

Cosmos 1908 Rocket - Pass Details

Date: 23 May 2024
Orbit: 602 x 628 km, 82.5° (Epoch: 13 June)

Event Time Altitude Azimuth Distance (km) Brightness Sun altitude
Rises 00:12:15 0° 349° (NNW) 2,926 8.1 -14.2°
Reaches altitude 10° 00:14:30 10° 350° (N) 2,011 7.2 -14.1°
Maximum altitude 00:18:58 83° 79° (E) 634 3.6 -13.9°
Enters shadow 00:22:23 17° 167° (SSE) 1,590 5.2 -13.7°
